�������l�o���
Date,Time,MP-1(��Sv/h),MP-2(��Sv/h),MP-3(��Sv/h),MP-4(��Sv/h),MP-5(��Sv/h),MP-6(��Sv/h),MP-7(��Sv/h),����,����(m/s),���J
2021/10/10,00:00,0.159,0.144,0.228,0.220,0.228,0.124,0.078,�k�k��,0.7,��
2021/10/10,00:10,0.158,0.143,0.226,0.220,0.225,0.123,0.078,�k��,1.0,�L
2021/10/10,00:20,0.159,0.144,0.227,0.220,0.228,0.123,0.079,�k�k��,1.1,�L
2021/10/10,00:30,0.158,0.145,0.225,0.221,0.225,0.123,0.078,�k,0.6,�L
2021/10/10,00:40,0.159,0.144,0.228,0.219,0.227,0.123,0.078,�k,0.9,�L
2021/10/10,00:50,0.159,0.144,0.225,0.221,0.225,0.124,0.079,�k�k��,0.6,��
2021/10/10,01:00,0.160,0.144,0.228,0.220,0.226,0.123,0.078,��,0.9,��
2021/10/10,01:10,0.158,0.143,0.226,0.220,0.226,0.123,0.079,�k��,0.7,��
2021/10/10,01:20,0.158,0.144,0.227,0.219,0.226,0.123,0.079,��,0.8,��
2021/10/10,01:30,0.159,0.144,0.226,0.221,0.226,0.123,0.078,-,CALM,��
2021/10/10,01:40,0.158,0.144,0.227,0.220,0.226,0.124,0.078,-,CALM,��
2021/10/10,01:50,0.159,0.144,0.224,0.221,0.227,0.124,0.078,-,CALM,��
2021/10/10,02:00,0.158,0.145,0.229,0.220,0.226,0.123,0.079,-,CALM,��
2021/10/10,02:10,0.159,0.145,0.226,0.221,0.228,0.123,0.078,�k��,0.6,��
2021/10/10,02:20,0.159,0.144,0.227,0.219,0.224,0.124,0.079,���k��,0.6,��
2021/10/10,02:30,0.160,0.143,0.225,0.220,0.228,0.122,0.078,-,CALM,��
2021/10/10,02:40,0.158,0.145,0.228,0.218,0.225,0.123,0.078,-,CALM,��
2021/10/10,02:50,0.159,0.144,0.226,0.221,0.228,0.123,0.078,-,CALM,��
2021/10/10,03:00,0.160,0.145,0.228,0.219,0.226,0.124,0.079,-,CALM,��
2021/10/10,03:10,0.159,0.144,0.227,0.221,0.226,0.124,0.079,-,CALM,��
2021/10/10,03:20,0.159,0.145,0.227,0.220,0.226,0.124,0.079,���쐼,0.6,�L
2021/10/10,03:30,0.159,0.144,0.227,0.220,0.226,0.124,0.078,-,CALM,�L
2021/10/10,03:40,0.160,0.146,0.227,0.220,0.226,0.123,0.078,-,CALM,�L
2021/10/10,03:50,0.158,0.144,0.226,0.220,0.225,0.125,0.079,���k��,0.6,�L
2021/10/10,04:00,0.160,0.145,0.227,0.221,0.226,0.123,0.079,-,CALM,�L
2021/10/10,04:10,0.159,0.145,0.227,0.221,0.227,0.124,0.079,��,0.6,�L
2021/10/10,04:20,0.160,0.145,0.227,0.221,0.228,0.124,0.079,���k��,0.6,�L
2021/10/10,04:30,0.159,0.144,0.228,0.220,0.226,0.124,0.079,-,CALM,��
2021/10/10,04:40,0.160,0.145,0.226,0.221,0.228,0.124,0.079,���k��,1.1,��
2021/10/10,04:50,0.161,0.144,0.227,0.220,0.226,0.123,0.078,���k��,1.0,�L
2021/10/10,05:00,0.159,0.145,0.225,0.220,0.227,0.124,0.078,���k��,1.2,�L
2021/10/10,05:10,0.160,0.145,0.228,0.219,0.226,0.123,0.078,���k��,1.5,��
2021/10/10,05:20,0.158,0.144,0.225,0.220,0.225,0.124,0.078,���k��,1.3,��
2021/10/10,05:30,0.159,0.144,0.227,0.220,0.228,0.123,0.078,���k��,1.4,��
2021/10/10,05:40,0.159,0.144,0.227,0.221,0.225,0.123,0.078,���k��,1.0,��
2021/10/10,05:50,0.159,0.144,0.227,0.220,0.227,0.123,0.078,���k��,0.9,�L
2021/10/10,06:00,0.159,0.145,0.227,0.220,0.225,0.123,0.079,�k��,0.8,��
2021/10/10,06:10,0.160,0.144,0.227,0.220,0.227,0.123,0.078,-,CALM,��
2021/10/10,06:20,0.158,0.144,0.225,0.221,0.227,0.122,0.079,�k��,1.1,��
2021/10/10,06:30,0.159,0.144,0.226,0.219,0.226,0.123,0.079,�k��,1.4,��
2021/10/10,06:40,0.159,0.144,0.226,0.220,0.227,0.123,0.078,�k��,1.1,��
2021/10/10,06:50,0.157,0.145,0.226,0.221,0.225,0.123,0.078,�k��,1.0,��
2021/10/10,07:00,0.160,0.143,0.227,0.219,0.227,0.124,0.077,-,CALM,��
2021/10/10,07:10,0.159,0.145,0.226,0.221,0.225,0.124,0.078,�k�k��,0.8,��
2021/10/10,07:20,0.159,0.144,0.227,0.219,0.226,0.124,0.077,���k��,1.3,��
2021/10/10,07:30,0.159,0.145,0.225,0.220,0.226,0.123,0.078,�k��,0.7,��
2021/10/10,07:40,0.159,0.143,0.228,0.218,0.226,0.122,0.078,�k��,1.4,��
2021/10/10,07:50,0.160,0.144,0.226,0.220,0.227,0.124,0.078,�k�k��,1.1,�L
2021/10/10,08:00,0.158,0.145,0.226,0.221,0.225,0.122,0.079,�k,0.9,�L
2021/10/10,08:10,0.161,0.144,0.227,0.218,0.225,0.124,0.078,�k�k��,0.9,�L
2021/10/10,08:20,0.160,0.145,0.225,0.221,0.228,0.124,0.078,�k,0.8,��
2021/10/10,08:30,0.158,0.145,0.227,0.219,0.225,0.123,0.079,�k�k��,0.7,��
2021/10/10,08:40,0.161,0.143,0.226,0.218,0.223,0.123,0.079,�k,0.8,��
2021/10/10,08:50,0.159,0.145,0.226,0.221,0.227,0.123,0.078,-,CALM,��
2021/10/10,09:00,0.158,0.145,0.226,0.220,0.227,0.123,0.078,���k��,0.9,��
2021/10/10,09:10,0.159,0.143,0.228,0.218,0.225,0.123,0.079,-,CALM,��
2021/10/10,09:20,0.160,0.145,0.226,0.220,0.226,0.124,0.078,-,CALM,��
2021/10/10,09:30,0.158,0.145,0.224,0.221,0.227,0.123,0.079,�k�k��,0.7,��
2021/10/10,09:40,0.158,0.143,0.228,0.219,0.226,0.123,0.079,-,CALM,��
2021/10/10,09:50,0.159,0.144,0.226,0.219,0.224,0.124,0.078,�k��,0.5,��
2021/10/10,10:00,0.158,0.145,0.225,0.221,0.226,0.124,0.078,���쓌,0.7,��
2021/10/10,10:10,0.158,0.143,0.227,0.219,0.228,0.123,0.079,��,1.3,��
2021/10/10,10:20,0.159,0.143,0.227,0.219,0.225,0.124,0.079,���쓌,1.4,��
2021/10/10,10:30,0.159,0.144,0.227,0.218,0.225,0.124,0.078,���쓌,1.6,��
2021/10/10,10:40,0.159,0.144,0.226,0.219,0.224,0.124,0.078,���쓌,1.8,��
2021/10/10,10:50,0.157,0.145,0.225,0.222,0.224,0.123,0.079,���쓌,1.6,��
2021/10/10,11:00,0.158,0.144,0.223,0.222,0.224,0.124,0.078,��쓌,1.7,��
2021/10/10,11:10,0.157,0.144,0.224,0.220,0.225,0.124,0.078,�쓌,1.9,��
2021/10/10,11:20,0.157,0.143,0.224,0.221,0.225,0.124,0.078,�쓌,2.5,��
2021/10/10,11:30,0.157,0.143,0.225,0.219,0.224,0.124,0.079,�쓌,2.2,��
2021/10/10,11:40,0.158,0.143,0.226,0.219,0.225,0.125,0.078,�쓌,2.9,��
2021/10/10,11:50,0.159,0.144,0.226,0.219,0.226,0.125,0.078,�쓌,2.7,��
2021/10/10,12:00,0.158,0.144,0.225,0.219,0.226,0.125,0.078,��쓌,2.8,��
2021/10/10,12:10,0.158,0.144,0.227,0.220,0.226,0.125,0.078,��쓌,2.7,��
2021/10/10,12:20,0.158,0.144,0.230,0.219,0.225,0.124,0.078,��쓌,3.5,��
2021/10/10,12:30,0.158,0.143,0.229,0.219,0.226,0.125,0.078,��쓌,3.4,��
2021/10/10,12:40,0.159,0.144,0.228,0.221,0.226,0.125,0.078,��쓌,4.7,��
2021/10/10,12:50,0.159,0.143,0.226,0.220,0.226,0.124,0.077,��쓌,5.7,��
2021/10/10,13:00,0.159,0.144,0.227,0.222,0.226,0.124,0.077,��쓌,7.1,��
2021/10/10,13:10,0.158,0.143,0.225,0.224,0.226,0.125,0.078,��쓌,7.8,��
2021/10/10,13:20,0.158,0.144,0.227,0.222,0.227,0.124,0.079,��쓌,7.9,��
2021/10/10,13:30,0.158,0.144,0.226,0.221,0.225,0.125,0.079,��쓌,8.3,��
2021/10/10,13:40,0.159,0.144,0.226,0.222,0.227,0.124,0.078,��쓌,8.3,��
2021/10/10,13:50,0.159,0.144,0.225,0.220,0.226,0.124,0.078,��쓌,8.2,��
2021/10/10,14:00,0.159,0.144,0.227,0.219,0.226,0.125,0.078,��쓌,8.3,��
2021/10/10,14:10,0.158,0.143,0.228,0.222,0.226,0.124,0.079,��쓌,8.9,��
2021/10/10,14:20,0.158,0.143,0.230,0.225,0.226,0.124,0.079,��쓌,7.5,��
2021/10/10,14:30,0.157,0.144,0.230,0.223,0.227,0.124,0.079,��쓌,8.5,��
2021/10/10,14:40,0.159,0.146,0.226,0.220,0.230,0.125,0.078,��쓌,8.2,��
2021/10/10,14:50,0.157,0.145,0.228,0.222,0.228,0.125,0.079,��쓌,8.5,��
2021/10/10,15:00,0.158,0.144,0.229,0.223,0.227,0.124,0.079,��,8.4,��
2021/10/10,15:10,0.158,0.146,0.228,0.222,0.230,0.125,0.078,��쓌,9.5,��
2021/10/10,15:20,0.160,0.146,0.229,0.220,0.229,0.124,0.079,��,9.5,��
2021/10/10,15:30,0.161,0.144,0.230,0.224,0.227,0.125,0.079,��쓌,7.9,��
2021/10/10,15:40,0.161,0.146,0.229,0.222,0.228,0.125,0.078,��,8.7,��
2021/10/10,15:50,0.159,0.147,0.228,0.220,0.228,0.124,0.079,��,9.1,��
2021/10/10,16:00,0.161,0.145,0.230,0.223,0.227,0.125,0.079,��,8.2,�L
2021/10/10,16:10,0.160,0.146,0.228,0.222,0.226,0.125,0.078,��,8.0,�L
2021/10/10,16:20,0.159,0.146,0.229,0.221,0.230,0.125,0.080,��,8.5,�L
2021/10/10,16:30,0.161,0.145,0.231,0.224,0.228,0.125,0.079,��,7.0,�L
2021/10/10,16:40,0.159,0.146,0.227,0.222,0.225,0.124,0.078,��,7.7,�L
2021/10/10,16:50,0.159,0.146,0.229,0.222,0.228,0.124,0.079,��,7.1,�L
2021/10/10,17:00,0.160,0.145,0.229,0.223,0.229,0.124,0.078,��,7.1,�L
2021/10/10,17:10,0.160,0.146,0.228,0.222,0.226,0.124,0.079,��,7.0,�L
2021/10/10,17:20,0.159,0.145,0.229,0.223,0.228,0.124,0.079,���쓌,6.5,�L
2021/10/10,17:30,0.161,0.146,0.230,0.223,0.228,0.124,0.079,��,7.8,�L
2021/10/10,17:40,0.159,0.145,0.227,0.220,0.227,0.124,0.079,��,7.6,�L
2021/10/10,17:50,0.159,0.146,0.231,0.223,0.230,0.125,0.079,��,8.3,�L
2021/10/10,18:00,0.161,0.146,0.228,0.223,0.228,0.126,0.079,��,7.4,�L
2021/10/10,18:10,0.159,0.145,0.229,0.222,0.228,0.124,0.079,��,8.6,�L
2021/10/10,18:20,0.161,0.145,0.229,0.223,0.229,0.125,0.079,��,7.0,�L
2021/10/10,18:30,0.161,0.144,0.229,0.222,0.225,0.125,0.078,��,8.1,�L
2021/10/10,18:40,0.159,0.146,0.229,0.221,0.228,0.124,0.079,��,7.7,�L
2021/10/10,18:50,0.161,0.145,0.227,0.224,0.228,0.125,0.079,��,7.7,�L
2021/10/10,19:00,0.158,0.146,0.230,0.221,0.226,0.123,0.079,��,7.1,�L
2021/10/10,19:10,0.160,0.145,0.228,0.222,0.229,0.124,0.079,��,7.0,�L
2021/10/10,19:20,0.160,0.145,0.229,0.223,0.227,0.124,0.079,��,6.6,�L
2021/10/10,19:30,0.159,0.147,0.230,0.221,0.228,0.125,0.079,��,6.9,�L
2021/10/10,19:40,0.160,0.145,0.227,0.223,0.229,0.124,0.079,��,6.5,�L
2021/10/10,19:50,0.160,0.145,0.229,0.220,0.225,0.125,0.079,��,7.6,�L
2021/10/10,20:00,0.160,0.145,0.228,0.222,0.229,0.124,0.079,��쐼,8.2,�L
2021/10/10,20:10,0.160,0.146,0.230,0.223,0.227,0.125,0.078,��,7.3,�L
2021/10/10,20:20,0.158,0.145,0.229,0.221,0.226,0.124,0.078,��쐼,8.0,�L
2021/10/10,20:30,0.160,0.146,0.228,0.223,0.228,0.123,0.079,��,8.5,�L
2021/10/10,20:40,0.160,0.146,0.230,0.221,0.227,0.125,0.078,��,8.4,�L
2021/10/10,20:50,0.160,0.145,0.228,0.221,0.226,0.124,0.079,��,8.1,�L
2021/10/10,21:00,0.161,0.146,0.230,0.223,0.228,0.123,0.079,��,7.8,�L
2021/10/10,21:10,0.159,0.145,0.228,0.222,0.227,0.124,0.078,��,7.5,�L
2021/10/10,21:20,0.159,0.145,0.229,0.225,0.230,0.124,0.079,��,7.0,�L
2021/10/10,21:30,0.160,0.145,0.229,0.222,0.227,0.123,0.078,��,7.1,�L
2021/10/10,21:40,0.158,0.146,0.228,0.221,0.228,0.125,0.080,��,7.9,�L
2021/10/10,21:50,0.161,0.146,0.230,0.223,0.227,0.124,0.079,��,7.7,�L
2021/10/10,22:00,0.160,0.144,0.228,0.222,0.227,0.125,0.078,��,7.8,�L
2021/10/10,22:10,0.159,0.146,0.229,0.222,0.230,0.125,0.079,��쐼,8.4,�L
2021/10/10,22:20,0.161,0.144,0.229,0.222,0.228,0.124,0.078,��쐼,8.8,�L
2021/10/10,22:30,0.159,0.146,0.229,0.222,0.229,0.125,0.080,��,8.5,�L
2021/10/10,22:40,0.161,0.145,0.230,0.224,0.228,0.124,0.079,��쐼,8.7,�L
2021/10/10,22:50,0.160,0.145,0.228,0.221,0.226,0.124,0.080,��,9.3,�L
2021/10/10,23:00,0.160,0.145,0.230,0.222,0.229,0.125,0.079,��쐼,7.4,�L
2021/10/10,23:10,0.161,0.145,0.228,0.222,0.227,0.124,0.078,��쐼,7.8,�L
2021/10/10,23:20,0.159,0.146,0.230,0.221,0.229,0.124,0.079,��쐼,7.1,�L
2021/10/10,23:30,0.160,0.145,0.230,0.223,0.227,0.126,0.079,��쐼,7.4,�L
2021/10/10,23:40,0.158,0.145,0.230,0.221,0.226,0.124,0.079,��쐼,6.0,�L
2021/10/10,23:50,0.160,0.146,0.228,0.222,0.228,0.125,0.080,��쐼,5.6,�L
